Flag for Poland Weather past 2 weeks in Kalisz, Poland

Now
64 °F

Overcast.


Feels Like: 64 °F
Forecast: 47 / 70 °F
Wind: 2 mph from Northeast

Location: Kalisz

Current Time: May 22, 2015 at 4:05:57 PM

Latest Report: May 22, 2015 at 3:00 PM


Visibility: 17 mi

Pressure: 30.23 "Hg

Humidity: 43%

Dew point: 41 °F

Location of KaliszLocation

Historic Weather in Kalisz — Graph

°F

Kalisz temperature yesterday

Maximum temperature yesterday: 61 °F (at 3:00 PM)
Minimum temperature yesterday: 49 °F (at 3:00 AM)
Average temperature yesterday: 55 °F

Past Weeks' High & Low Weather Summary

 TemperatureHumidityPressure
High74 °F (May 12, 3:00 PM)98% (May 17, 4:00 AM)30.41 "Hg (May 17, 4:00 AM)
Low42 °F (May 8, 6:00 AM)28% (May 11, 7:00 PM)29.69 "Hg (May 19, 9:00 AM)
Average56 °F64%30.04 "Hg
* Reported May 7 2:00 PM — May 22 2:00 PM, Kalisz, Weather by CustomWeather, © 2015

Note: Actual official high and low records may vary slightly from our data, if they occured in-between our weather recording intervals... More about our weather records

Advertising

Kalisz weather history for previous 24 hours

 ConditionsComfort  
Time TempWeatherWind HumidityBarometerVisibility
2:00 PM
Fri, May 22
62 °FOvercast.5 mph48%30.24 "Hg22 mi
1:00 PM62 °FPartly sunny.3 mph52%30.26 "Hg22 mi
12:00 PM61 °FPartly sunny.2 mph57%30.28 "Hg19 mi
11:00 AM62 °FScattered clouds.5 mph52%30.28 "Hg17 mi
10:00 AM60 °FPassing clouds.3 mph65%30.28 "Hg19 mi
9:00 AM58 °FPassing clouds.2 mph75%30.28 "Hg12 mi
8:00 AM54 °FPassing clouds.3 mph84%30.28 "Hg7 mi
7:00 AM51 °FFog.3 mph94%30.27 "Hg2 mi
6:00 AM48 °FFog.1 mph98%30.27 "Hg2 mi
5:00 AM47 °FFog.2 mph96%30.27 "Hg1 mi
4:00 AM49 °FFog.3 mph94%30.27 "Hg3 mi
3:00 AM50 °FFog.3 mph93%30.25 "Hg3 mi
2:00 AM51 °FFog.2 mph93%30.25 "Hg4 mi
1:00 AM52 °FFog.2 mph93%30.26 "Hg4 mi
12:00 AM52 °FFog.3 mph91%30.25 "Hg4 mi
10:00 PM
Thu, May 21
53 °FOvercast.2 mph86%30.23 "Hg7 mi
9:00 PM54 °FOvercast.1 mph84%30.23 "Hg6 mi
8:00 PM55 °FLight rain. Overcast.2 mph82%30.21 "Hg7 mi
7:00 PM57 °FLight rain. Overcast.6 mph72%30.20 "Hg19 mi
6:00 PM59 °FOvercast.5 mph70%30.18 "Hg19 mi
5:00 PM59 °FOvercast.2 mph66%30.17 "Hg19 mi
4:00 PM60 °FOvercast.2 mph64%30.17 "Hg22 mi
Weather by CustomWeather, © 2015

See weather overviewHow to use our weather pages